Content
SEND FEEDBACK

Daily
Averages
Monthly
Summary
United States of America

GREENSBURG, INDIANA


Home > North America > United States > Indiana
Elevation: 949 feet     Latitude: 39 20N     Longitude: 085 28W

WEATHER
 
SELECT A DAY
Number of Records: 176,897;   Date Range: 10/15/98 - 11/21/14
 
SHARE

PRINT THIS DATA

[ ← Previous Day ]
WEATHER ALMANAC - DECEMBER 17, 2013
[ Next Day → ]
[ °C ]   °F
Weather ElementAverageHighLow
Temperature27.5 °F30 °F (1:53 am)23 °F (11:53 pm)
Dewpoint22.1 °F26.1 °F (1:53 am)19.9 °F (11:53 am)
Humidity80.4 %88 % (11:53 pm)72 % (3:21 pm)
Barometer30.09 in30.19 in (11:53 pm)30.03 in (2:24 am)
Wind Speed10.8 mph15 mph (1:53 am)
Weather ElementAverage
Visibility7.8 mi
Wind DirectionWSW (262.6 °)

Weather ElementTotal
Precipitation---
Heating Degree Days38.5 (Base 65)
Averaged from 35 records on December 17, 2013
WEATHER CONDITIONS BREAKOUT
WIND DIRECTION BREAKOUT
WEATHER BY HOUR - DECEMBER 17, 2013
[ °C ]   °F
Local TimeTemperatureDewpointHumidityBarometerVisibilityWind DirectionWind SpeedGust SpeedPrecipitationEventsConditions
1:53 AM30.0 °F26.1 °F85 %30.04 in4.0 miNW (310°)15.0 mphOvercast
2:24 AM28.9 °F25.0 °F85 %30.03 in9.0 miNW (320°)15.0 mphOvercast
2:53 AM28.0 °F24.1 °F85 %30.06 in9.0 miNNW (330°)11.5 mphOvercast
3:13 AM28.0 °F24.1 °F85 %30.03 in9.0 miNW (320°)11.5 mphOvercast
3:53 AM27.0 °F23.0 °F85 %30.08 in9.0 miNW (320°)8.1 mphOvercast
4:24 AM27.0 °F23.0 °F85 %30.03 in8.0 miWNW (300°)4.6 mphOvercast
4:53 AM27.0 °F23.0 °F85 %30.08 in9.0 miWNW (290°)9.2 mphOvercast
5:53 AM27.0 °F23.0 °F85 %30.10 in7.0 miWest (270°)12.7 mphOvercast
6:53 AM26.1 °F21.0 °F81 %30.09 in8.0 miWNW (300°)11.5 mphOvercast
7:53 AM26.1 °F21.0 °F81 %30.08 in8.0 miSW (230°)4.6 mphOvercast
8:53 AM26.1 °F21.0 °F81 %30.12 in8.0 miWNW (290°)11.5 mphOvercast
9:53 AM25.0 °F21.0 °F85 %30.14 in6.0 miWest (270°)12.7 mphOvercast
10:53 AM26.1 °F21.9 °F84 %30.13 in4.0 miWest (260°)9.2 mphOvercast
11:53 AM25.0 °F19.9 °F81 %30.11 in6.0 miWSW (250°)10.4 mphHaze
12:53 PM25.0 °F21.0 °F85 %30.07 in6.0 miSW (220°)12.7 mphOvercast
1:53 PM27.0 °F21.0 °F78 %30.06 in8.0 miSW (230°)12.7 mphMostly Cloudy
2:27 PM27.0 °F21.0 °F78 %30.03 in9.0 miWSW (240°)12.7 mphMostly Cloudy
2:34 PM28.0 °F21.0 °F75 %30.03 in9.0 miWSW (250°)9.2 mphScattered Clouds
2:53 PM28.0 °F21.0 °F75 %30.06 in9.0 miWSW (250°)10.4 mphMostly Cloudy
3:21 PM28.9 °F21.0 °F72 %30.05 in10.0 miWSW (250°)12.7 mphMostly Cloudy
3:53 PM28.9 °F21.9 °F75 %30.08 in5.0 miWSW (250°)13.8 mph0.00 inSnowLight Snow
4:15 PM28.9 °F21.9 °F75 %30.05 in2.5 miWSW (250°)10.4 mph0.00 inSnowLight Snow
4:22 PM28.9 °F21.9 °F75 %30.05 in6.0 miWSW (250°)12.7 mph0.00 inHaze
4:46 PM28.9 °F21.9 °F75 %30.05 in9.0 miWSW (250°)11.5 mph0.00 inMostly Cloudy
4:53 PM28.9 °F21.9 °F75 %30.09 in8.0 miWSW (250°)12.7 mph0.00 inMostly Cloudy
5:43 PM28.9 °F21.9 °F75 %30.08 in9.0 miWest (260°)12.7 mphOvercast
5:53 PM30.0 °F23.0 °F75 %30.11 in10.0 miWest (260°)11.5 mphOvercast
6:53 PM30.0 °F24.1 °F79 %30.13 in10.0 miWest (260°)12.7 mphOvercast
7:06 PM30.0 °F24.1 °F79 %30.11 in10.0 miWSW (250°)9.2 mphOvercast
7:53 PM28.9 °F23.0 °F78 %30.14 in9.0 miWSW (240°)9.2 mphMostly Cloudy
8:01 PM28.0 °F21.9 °F78 %30.12 in9.0 miWSW (240°)8.1 mphPartly Cloudy
8:53 PM24.1 °F19.9 °F84 %30.17 in7.0 miSW (230°)9.2 mphClear
9:53 PM25.0 °F21.0 °F85 %30.18 in7.0 miSW (230°)8.1 mphMostly Cloudy
10:53 PM28.0 °F23.0 °F81 %30.18 in8.0 miWSW (240°)9.2 mphScattered Clouds
11:53 PM23.0 °F19.9 °F88 %30.19 in7.0 miSW (230°)8.1 mphClear
Hourly data recorded from KGEZ, located miles away from Greensburg, Indiana







STORIES FROM OUR PARTNERS